Velovelo
Português Nederlands 日本語 中文
Español English čeština slovenčina
русский italiano polski norsk
français Deutsch svenska عربي
 
 poprzednia strona
 Wyślij znajomemu
 Aby wydrukować
 ---> Les 3 Ballons 2008 : Résultats du Master 205 km

ClassNomPrénomCat.C.c..Temps........Ecart..
1 VOLKMANN JENS E 1 06:28:24.3 0:00:00
2 SNEL MICHEL D 1 06:30:16.4 0:01:52
3 DENIS JONATHAN C 1 06:34:31.7 0:06:07
4 DIAZ STEVE C 2 06:41:13.0 0:12:49
5 LINGNAU FRANCK D 2 06:46:28.5 0:18:04
6 MAILFAIT SEBASTIEN D 3 06:48:05.5 0:19:41
7 SCHILD VALENTIN C 3 06:48:24.8 0:20:00
8 POLVERONI DAVID C 4 06:49:09.9 0:20:45
9 LAUBER EDOUARD C 5 06:49:31.7 0:21:07
10 O CALLAGHAN WILLIAM D 4 06:50:07.7 0:21:43
11 BELUCHE MICKAEL C 6 06:50:31.0 0:22:07
12 VAN BUREN BERT C 7 06:52:30.8 0:24:06
13 WESSELS FRANS E 2 06:53:18.7 0:24:54
14 CUENIN FABRICE D 5 06:53:23.8 0:24:59
15 DEBERTIN DIRK E 3 06:54:44.7 0:26:20
16 RANDSDORP RENE E 4 06:54:50.4 0:26:26
17 KOEN BEIJENS D 6 06:55:15.6 0:26:51
18 RIETVELD LARS E 5 06:55:27.3 0:27:03
19 BEILL CEDRIC C 8 06:56:06.8 0:27:42
20 SPEYBROUCK FILIP D 7 06:56:17.4 0:27:53
21 BORRION REMI D 8 06:56:25.3 0:28:01
22 DENTON STEFAN D 9 06:56:31.3 0:28:07
23 FRICKER DANIEL E 6 06:56:37.6 0:28:13
24 VERSCHUREN NICK E 7 06:56:45.5 0:28:21
25 GOHN YVES D 10 06:56:48.2 0:28:24
26 FERKET JO F 1 06:57:00.6 0:28:36
27 COGGE CHRISTOPH D 11 06:57:05.6 0:28:41
28 RONAT PHILIPPE E 8 06:57:13.8 0:28:49
29 GRAHAM MARK D 12 06:57:21.3 0:28:57
30 SCHEFFER FRANK E 9 06:57:52.8 0:29:28
31 DERKSEN MICHIEL C 9 06:58:01.0 0:29:37
32 VAN DE VELDE KRIS D 13 06:58:06.1 0:29:42
33 MENAGER LOIC D 14 06:58:30.9 0:30:06
34 HEIJLTJES HENRI D 15 06:58:48.5 0:30:24
35 BOULANGER WILLIAM D 16 06:59:53.4 0:31:29
36 LAMOTHE ROBIN C 10 07:00:01.9 0:31:37
37 LALLEMENT THIERRY D 17 07:00:14.0 0:31:50
38 MIDDENDORP DENNIS D 18 07:01:42.7 0:33:18
39 BACKELANDT FREDERIK C 11 07:02:16.8 0:33:52
40 DOUETTE HERVE D 19 07:03:33.0 0:35:09
41 BRIDE PASCAL F 2 07:04:00.9 0:35:36
42 ALTHUSSER REMY E 10 07:05:21.7 0:36:57
43 BOSSUYT OLIVIER D 20 07:05:49.9 0:37:25
44 PHILIPPS RAPHAEL D 21 07:06:31.6 0:38:07
45 FRANSSEN PASCAL C 12 07:06:55.4 0:38:31
46 MERMANS LUC E 11 07:10:40.1 0:42:16
47 REMY BERTRAND D 22 07:11:09.6 0:42:45
48 VAN GANSEN PATRICK E 12 07:11:50.0 0:43:26
49 SANCHEZ JEAN MICHEL E 13 07:11:50.8 0:43:26
50 NIKLASSON JOHN E 14 07:12:28.4 0:44:04
51 GIORGALLA SERGE F 3 07:12:30.1 0:44:06
52 DE RIDDER RICHARD E 15 07:12:31.8 0:44:07
53 GEENEN MARTIJN D 23 07:12:39.0 0:44:15
54 KOOREMAN PATRICK E 16 07:12:45.8 0:44:21
55 NIJHUIS JEROEN C 13 07:12:53.0 0:44:29
56 BALAUDE JEAN FRANCOIS E 17 07:12:57.3 0:44:33
57 SCHAILLEE LUC E 18 07:13:10.4 0:44:46
58 CRESPY BRUNO E 19 07:13:17.7 0:44:53
59 KASLER JENS E 20 07:13:23.9 0:44:59
60 LAUREYS JOSEF G 1 07:13:52.5 0:45:28
61 RENAUD JEAN PIERRE E 21 07:13:56.3 0:45:32
62 ROOSE YANNIK E 22 07:14:00.6 0:45:36
63 MULLER SEILLER CHRISTINE AB 1 07:14:13.2 0:45:49
64 JANSEN SANDER D 24 07:14:23.5 0:45:59
65 DELEFORTRIE ALAIN E 23 07:15:26.7 0:47:02
66 BURGHARD FRANCOIS E 24 07:16:12.5 0:47:48
67 LUYCKX RONALD D 25 07:16:24.5 0:48:00
68 ROLLMANN PETER F 4 07:16:27.1 0:48:03
69 VENDERBOSCH EIMERT E 25 07:16:36.4 0:48:12
70 AMEZ DIETER C 14 07:16:50.9 0:48:26
71 BERTRAND JEAN-PAUL F 5 07:17:04.7 0:48:40
72 RYCKBOSCH JAN E 26 07:17:23.0 0:48:59
73 CLEMENT LAURENT E 27 07:17:30.3 0:49:06
74 VAN DEN BROEK MARC F 6 07:17:47.5 0:49:23
75 SMITS SANDER D 26 07:18:00.7 0:49:36
76 CLAEYS FRANKY D 27 07:18:02.5 0:49:38
77 EHRMANN CLAUDE F 7 07:18:39.0 0:50:15
78 VELDHUIS REMCO D 28 07:19:02.1 0:50:38
79 VAN HORENBEEK GUY F 8 07:19:37.7 0:51:13
80 CROISIER ARNAUD C 15 07:19:48.0 0:51:24
81 SCHENK GERARD F 9 07:20:07.3 0:51:43
82 RAEYMAEKERS LUC E 28 07:20:08.0 0:51:44
83 VERBEEREN DAVY C 16 07:20:17.9 0:51:53
84 MONSIEURS JANIK D 29 07:20:44.6 0:52:20
85 SCHAUBER ALAIN F 10 07:21:05.1 0:52:41
86 MOREEL WOUT D 30 07:21:12.7 0:52:48
87 JANSEN REMI D 31 07:21:31.5 0:53:07
88 MARIJSSE GEERT E 29 07:21:35.1 0:53:11
89 GIRARDET ALAIN E 30 07:21:53.2 0:53:29
90 CHANUT CHRISTOPHE E 31 07:21:56.1 0:53:32
91 SCHOTT CHRISTIAN E 32 07:22:14.4 0:53:50
92 MENDOZA FRANCK D 32 07:22:24.0 0:54:00
93 BOSQUET HUBERT E 33 07:22:26.7 0:54:02
94 CUNEY IGOR F 11 07:22:30.6 0:54:06
95 GOHN CHRISTIAN D 33 07:22:48.4 0:54:24
96 HAUTEKEETE ARNE D 34 07:22:54.6 0:54:30
97 LINKIS JACOB C 17 07:23:06.9 0:54:42
98 WALLIANG FREDERIC E 34 07:23:17.4 0:54:53
99 BOISARD OLIVIER E 35 07:23:26.7 0:55:02
100 HUGHSON JOCK E 36 07:23:29.1 0:55:05
101 VAN GENECHTEN KOEN E 37 07:23:51.8 0:55:27
102 KRISTENSEN MARTIN C 18 07:24:28.5 0:56:04
103 VANSTEENVOORT WIM D 35 07:24:34.9 0:56:10
104 JACQUIN GERARD E 38 07:25:03.1 0:56:39
105 MOUGEL FRANCIS E 39 07:25:10.4 0:56:46
106 ARNOLD THIERRY E 40 07:25:15.8 0:56:51
107 METZ MARTIN E 41 07:25:17.4 0:56:53
108 VANHEE DIRK D 36 07:25:38.4 0:57:14
109 READ MARK F 12 07:25:58.0 0:57:34
110 NICODEME JOEL E 42 07:26:30.2 0:58:06
111 KONINGS TOM D 37 07:27:01.6 0:58:37
112 BONNENGE BENJAMIN C 19 07:27:21.4 0:58:57
113 MALANDAIN CHRISTOPHE D 38 07:27:37.5 0:59:13
114 MOENS MARIO E 43 07:27:57.8 0:59:33
115 REUSCHLE CHRISTOPHE E 44 07:28:11.0 0:59:47
116 VERHEYEN JEAN D 39 07:28:16.0 0:59:52
117 DE CORTE PETER E 45 07:28:17.6 0:59:53
118 VAN TINTELEN IMMANUEL E 46 07:29:01.6 1:00:37
119 RENOU DANIEL F 13 07:29:04.5 1:00:40
120 VAN NIEUWENBORG HERMAN F 14 07:29:09.2 1:00:45
121 HENNUY ERIC E 47 07:29:23.1 1:00:59
122 VRANCKEN CAMIEL D 40 07:29:37.7 1:01:13
123 CEOTTO FRANCIS F 15 07:29:41.3 1:01:17
124 DOYEN LIONEL D 41 07:29:42.5 1:01:18
125 MAHIEU MICHEL E 48 07:29:47.6 1:01:23
126 DEWAELE MICHEL F 16 07:30:24.0 1:02:00
127 KINTZIGER JOEL E 49 07:30:26.2 1:02:02
128 MICHEL XAVIER E 50 07:30:34.7 1:02:10
129 DEBAYE SEBASTIEN D 42 07:31:06.2 1:02:42
130 DE JONG PAUL D 43 07:31:39.1 1:03:15
131 PLANCKE GEERT D 44 07:32:54.6 1:04:30
132 DE JONG ROB D 45 07:33:45.1 1:05:21
133 LACROIX CLAUDE E 51 07:34:49.0 1:06:25
134 ROBIN GILLES F 17 07:35:04.6 1:06:40
135 DEWINTER MICHEL F 18 07:35:27.6 1:07:03
136 GOERGEN GERMAIN F 19 07:35:47.7 1:07:23
137 BUDO NICO D 46 07:35:49.7 1:07:25
138 VAN OOSTENDE MARTIN F 20 07:35:56.5 1:07:32
139 DAEMS EDDY D 47 07:36:08.1 1:07:44
140 LARSEN JENS HENRIK E 52 07:36:32.3 1:08:08
141 MIES CHRIS D 48 07:36:42.2 1:08:18
142 WITTER PETER C 20 07:36:53.1 1:08:29
143 GUGENBERGER THIERRY D 49 07:37:02.8 1:08:38
144 PETREMENT PHILIPPE D 50 07:37:47.2 1:09:23
145 VAN HULLE MARIJN D 51 07:37:54.2 1:09:30
146 LINDELAUF CHARLES E 53 07:38:01.4 1:09:37
147 WOUTERS BRAM C 21 07:38:02.3 1:09:38
148 TAKENS RONNIE D 52 07:38:26.5 1:10:02
149 VRANCKEN JO G 2 07:38:27.8 1:10:03
150 TEMBUYBER JAN D 53 07:38:31.2 1:10:07
151 KARCHER BERNARD E 54 07:38:37.2 1:10:13
152 DEKREON PIERRE F 21 07:39:03.0 1:10:39
153 VAN DE KLUNDERT JORIS E 55 07:39:22.1 1:10:58
154 HERTEGONNE JOHAN F 22 07:39:22.2 1:10:58
155 ROHMER MARC F 23 07:39:27.0 1:11:03
156 HANTZ JACQUES F 24 07:39:29.3 1:11:05
157 NAEGELY GUY F 25 07:39:42.4 1:11:18
158 BEKAERT FREDDY E 56 07:40:00.0 1:11:36
159 RADEFF STEPHANE D 54 07:40:21.7 1:11:57
160 BECKERS WALTER C 22 07:40:37.3 1:12:13
161 SCHMITT ROGER E 57 07:41:04.9 1:12:40
162 DEN BAGEN VINCENT D 55 07:41:15.5 1:12:51
163 MANDEL ALEXANDRE C 23 07:41:31.4 1:13:07
164 BRIOT PABLO D 56 07:41:34.1 1:13:10
165 STEVENS BENNY E 58 07:41:41.7 1:13:17
166 MARTENS FONNY F 26 07:41:51.8 1:13:27
167 DE OLIVEIRA SOUSA FERNANDO E 59 07:42:18.4 1:13:54
168 VERMEERSCH PAUL E 60 07:42:37.0 1:14:13
169 BRAYE MICHEL E 61 07:42:40.1 1:14:16
170 MESSERLIN ARNAUD C 24 07:42:51.7 1:14:27
171 GODDAER JAN D 57 07:43:05.2 1:14:41
172 LEVEQUE ERIC F 27 07:43:22.3 1:14:58
173 VAN DER ZWAN KEES F 28 07:43:29.8 1:15:05
174 CHAPON XAVIER D 58 07:43:37.4 1:15:13
175 SALDEN ROGER E 62 07:43:37.9 1:15:13
176 VOETS NICO D 59 07:43:39.1 1:15:15
177 PECHIN JULIEN C 25 07:43:43.7 1:15:19
178 CARNEIRO BELMIRO E 63 07:43:56.7 1:15:32
179 GIRARDET ERIC E 64 07:44:03.2 1:15:39
180 FOURNEL FABIEN D 60 07:44:11.4 1:15:47
181 VERTRIEST OLIVIER C 26 07:44:26.1 1:16:02
182 DELFOSSE NICOLAS D 61 07:44:29.6 1:16:05
183 ANGST JEAN MARC E 65 07:44:39.1 1:16:15
184 SCHOUTEN RICHARD D 62 07:44:57.5 1:16:33
185 GRISEL LAURENT D 63 07:45:21.7 1:16:57
186 SEVENOIS WIM E 66 07:45:29.7 1:17:05
187 SCHROEDER HERVE D 64 07:45:30.0 1:17:06
188 HAMON LAURENT D 65 07:45:35.8 1:17:11
189 REYNIERS EDDY F 29 07:46:00.1 1:17:36
190 JACOBS ROLAND F 30 07:46:20.9 1:17:56
191 BRIJDER BERTIJN D 66 07:46:33.5 1:18:09
192 KIRY SYLVESTRE D 67 07:46:53.2 1:18:29
193 SAILLARD CHRISTIAN E 67 07:46:58.5 1:18:34
194 LARRIERE MICHEL E 68 07:47:08.3 1:18:44
195 VAN DE SANDE GUY D 68 07:47:11.1 1:18:47
196 DE CLERCQ GEERT D 69 07:47:13.6 1:18:49
197 HACQUIN PATRICK E 69 07:47:22.7 1:18:58
198 DENOEL CHRISTIAN E 70 07:47:25.7 1:19:01
199 HEMMINGS PHILIP E 71 07:47:32.8 1:19:08
200 MAURIZI VINCENZO F 31 07:47:33.8 1:19:09
201 JEANDEL FRANCIS G 3 07:47:40.1 1:19:16
202 VAN DER WEIDE AUKE BONNE D 70 07:47:42.4 1:19:18
203 VAN WEVERENBERGH BRUNO E 72 07:47:45.0 1:19:21
204 BIDDELOO RONNY F 32 07:47:46.9 1:19:22
205 JOHANN JORG D 71 07:47:50.8 1:19:26
206 VAN OORSCHOT ERIC F 33 07:47:58.7 1:19:34
207 BRETON ERIC F 34 07:48:01.4 1:19:37
208 MANOJLOVIC BORISLAV F 35 07:48:07.3 1:19:43
209 PELKMANS JOHNNY E 73 07:48:22.0 1:19:58
210 VAN GESTEL TWAN D 72 07:48:25.3 1:20:01
211 ANDERSEN CLAUS E 74 07:48:51.0 1:20:27
212 RUYSEN ROHNNY E 75 07:48:56.9 1:20:32
213 DEMEY KOEN E 76 07:48:57.8 1:20:33
214 BAREZ CEDRIC D 73 07:49:21.5 1:20:57
215 BRIOT JEAN-PAUL E 77 07:49:32.5 1:21:08
216 GOURMET PATRICK F 36 07:49:35.6 1:21:11
217 ANDRIEUX OLIVIER E 78 07:49:38.9 1:21:14
218 HEDDEN WILLIAM C 27 07:50:00.6 1:21:36
219 DE RUYCK KOEN E 79 07:50:10.4 1:21:46
220 VAN DEN AKKERVEKEN EDDY E 80 07:50:18.2 1:21:54
221 VAN DE KAMP SJOERD D 74 07:50:20.2 1:21:56
222 SCHAAFSMA HARCO E 81 07:50:50.5 1:22:26
223 VAN MINNEBRUGGEN BERN D 75 07:51:00.0 1:22:36
224 SPIESS DOMINIQUE D 76 07:51:20.5 1:22:56
225 JESPERS KURT D 77 07:51:35.8 1:23:11
226 HOUTHOOFD PATRICK D 78 07:51:35.9 1:23:11
227 LETEN TONY D 79 07:51:37.6 1:23:13
228 VERSCHUREN JAN E 82 07:51:50.6 1:23:26
229 COUCHMAN TONY F 37 07:51:59.5 1:23:35
230 MONTOLIO FREDERIC E 83 07:52:02.6 1:23:38
231 KOSTER LAURENS D 80 07:52:04.3 1:23:40
232 BRESCH EMMANUEL D 81 07:52:24.3 1:24:00
233 THOMASSON CHRISTOPHE D 82 07:52:56.4 1:24:32
234 CURUTCHET PABLO E 84 07:53:15.3 1:24:51
235 FOLLIOT RODOLPHE D 83 07:53:48.7 1:25:24
236 ZUNINO PASCAL D 84 07:53:53.7 1:25:29
237 OOSTENDORP VINCENT E 85 07:53:59.2 1:25:35
238 RIZZO GIACOMO F 38 07:54:33.9 1:26:09
239 VAN RHIJN JOS E 86 07:54:36.3 1:26:12
240 PAAUW PETER E 87 07:54:48.9 1:26:24
241 COSSYNS MARC E 88 07:54:52.5 1:26:28
242 WELTE JEROEN D 85 07:54:57.8 1:26:33
243 CORRAL ALAIN D 86 07:55:03.7 1:26:39
244 MERABTI HAMIDE D 87 07:55:07.8 1:26:43
245 PREMEREUR GEERT D 88 07:55:43.1 1:27:19
246 LAENENS HUGO E 89 07:56:07.8 1:27:43
247 MULLER HUBERT G 4 07:56:15.2 1:27:51
248 DE HAAS MARC D 89 07:56:28.7 1:28:04
249 VAN DEN ZEGEL MARC E 90 07:56:49.1 1:28:25
250 DIELS WIM D 90 07:57:00.0 1:28:36
251 THIRIOT LOUIS F 39 07:57:02.6 1:28:38
252 BOULENGER BERTRAND C 28 07:57:05.2 1:28:41
253 VERSELDER HANS JURGEN D 91 07:57:16.8 1:28:52
254 MAGGUILLI JEAN LUC D 92 07:57:24.0 1:29:00
255 SCHOUPPE OLIVIER D 93 07:57:30.0 1:29:06
256 PENDERS BART D 94 07:57:42.9 1:29:18
257 VOGELEER STEPHAN D 95 07:57:57.4 1:29:33
258 BOGAERT MIKE C 29 07:58:10.5 1:29:46
259 BERNAGAUD CYRILLE D 96 07:58:13.6 1:29:49
260 SUKOPP JENS D 97 07:58:17.9 1:29:53
261 DE VLEESCHOUWER DANNY F 40 07:58:20.7 1:29:56
262 WILLEMS WERNER D 98 07:58:22.6 1:29:58
263 GROSEMANS JOHAN D 99 07:58:40.4 1:30:16
264 BOURDARET PATRICE J 1 07:58:53.8 1:30:29
265 DICKHOUT JAN F 41 07:58:56.8 1:30:32
266 RIKKEN DOLF JWA D 100 07:59:06.6 1:30:42
267 HUBEAU MARC E 91 07:59:36.6 1:31:12
268 CLAUDEL JEAN BAPTISTE D 101 07:59:43.0 1:31:19
269 LANCELOT RAYMOND D 102 07:59:48.2 1:31:24
270 PASMAN HARROLD E 92 08:00:03.0 1:31:39
271 JANSSENS BART D 103 08:00:12.7 1:31:48
272 GALLE BART D 104 08:00:34.4 1:32:10
273 SCHICK MARTIN C 30 08:00:36.1 1:32:12
274 HEUTINCK MARCO E 93 08:00:48.0 1:32:24
275 MARTIN STEPHANE E 94 08:01:20.1 1:32:56
276 JONGELING RUDOEF E 95 08:01:34.0 1:33:10
277 PRUD HOMME DENIS F 42 08:01:41.3 1:33:17
278 NAU DOMINIK C 31 08:01:43.8 1:33:19
279 HOUTTEKIET PHILIPPE E 96 08:02:10.6 1:33:46
280 KRIKKE JURGEN E 97 08:02:14.4 1:33:50
281 LINDEBOOM MAARTEN E 98 08:02:32.3 1:34:08
282 SJERP ERWIN D 105 08:02:39.4 1:34:15
283 RUETSCH RAPHAEL D 106 08:02:47.9 1:34:23
284 HIRTZMANN JACKY D 107 08:03:04.4 1:34:40
285 EPLE JEAN CLAUDE F 43 08:03:27.9 1:35:03
286 ONNEN MARC E 99 08:03:37.8 1:35:13
287 CORLIN ULRIK E 100 08:04:02.0 1:35:38
288 GREVESSE ROBERT E 101 08:05:03.9 1:36:39
289 BEKAERT STEVEN C 32 08:05:06.7 1:36:42
290 VAN DER DRIFT MARK D 108 08:05:14.9 1:36:50
291 JANSSEN JOS F 44 08:05:19.3 1:36:55
292 COMPERNOLLE FREDDY E 102 08:05:28.4 1:37:04
293 THOYER MARC C 33 08:05:37.2 1:37:13
294 SIMONIN RAOUL E 103 08:05:40.7 1:37:16
295 VAN DESSEL CHRISTOPH D 109 08:05:44.8 1:37:20
296 MAUME JACQUES F 45 08:05:48.9 1:37:24
297 MEYSTER PAUL E 104 08:05:52.4 1:37:28
298 SILVIUS PETER E 105 08:05:59.5 1:37:35
299 WIETKIN ARTHUR F 46 08:06:03.0 1:37:39
300 DE JAEGER KRISTOF C 34 08:06:18.0 1:37:54
301 ACKER GUILLAUME D 110 08:06:26.6 1:38:02
302 POIROT THIBAULT C 35 08:06:29.4 1:38:05
303 HUBERS MIELS D 111 08:06:35.9 1:38:11
304 WEIBEL MICHAEL E 106 08:06:57.6 1:38:33
305 VANDAELE JURGEN C 36 08:07:00.7 1:38:36
306 HOOGENBOOM ARJEN E 107 08:07:27.8 1:39:03
307 VAN RHOON RONALD F 47 08:07:36.6 1:39:12
308 THYSSEN DANNY D 112 08:07:37.9 1:39:13
309 VAN DER VLUGT ROB E 108 08:07:44.4 1:39:20
310 HEAPS MICHAEL E 109 08:07:51.7 1:39:27
311 VOORNEVELD REIN E 110 08:08:01.7 1:39:37
312 DE KOKER DIRK D 113 08:08:03.2 1:39:39
313 VOS EGBERT E 111 08:08:05.4 1:39:41
314 THOMAS CYRILLE D 114 08:08:06.3 1:39:42
315 ROBERTS SIMON E 112 08:08:11.0 1:39:47
316 GARLISI UMBERTO E 113 08:08:15.6 1:39:51
317 LUNDG CHRISTIAN D 115 08:08:16.1 1:39:52
318 JEANMAIRE LAURENT E 114 08:08:22.0 1:39:58
319 COURBET GERARD E 115 08:08:23.7 1:39:59
320 PUTMAN JOHAN E 116 08:08:44.1 1:40:20
321 VANBRABANT FILIP E 117 08:08:56.6 1:40:32
322 AUBERT PASCAL D 116 08:08:57.5 1:40:33
323 LENGLER RUDY D 117 08:09:10.5 1:40:46
324 TIMMERMANS SAM C 37 08:09:11.6 1:40:47
325 VANDENBERGHE PETER D 118 08:09:30.4 1:41:06
326 VAN WIJK CHRIS E 118 08:09:32.6 1:41:08
327 SCHMELTZ THOMAS C 38 08:09:49.5 1:41:25
328 VAN DER DEIJL ARJAN D 119 08:10:00.1 1:41:36
329 NIEZINK DANIEL C 39 08:10:13.9 1:41:49
330 AULAGNIER STEPHANE D 120 08:10:16.0 1:41:52
331 VAN LOOY DAVY D 121 08:10:45.2 1:42:21
332 TIMMERMANS WIM E 119 08:10:52.9 1:42:28
333 LUIKENS GUIDO E 120 08:11:06.1 1:42:42
334 ROBBERSE ERIK E 121 08:11:15.8 1:42:51
335 ROBERT J.MICHEL G 5 08:11:17.8 1:42:53
336 TIARRI DANIEL D 122 08:11:22.3 1:42:58
337 DEROUBAIX CHRISTOPHE E 122 08:11:25.3 1:43:01
338 CORONADO JEAN PIERRE F 48 08:11:41.9 1:43:17
339 COURTET LAURENT E 123 08:11:43.1 1:43:19
340 PLANCKE BERT D 123 08:11:50.6 1:43:26
341 MARCHAND LUDOVIC D 124 08:12:01.3 1:43:37
342 SOUBEYRAND SAMUEL C 40 08:12:14.7 1:43:50
343 FRESSE BENOIT D 125 08:12:23.1 1:43:59
344 NAEF ANDREAS F 49 08:12:29.2 1:44:05
345 DELCROIX ALFONS F 50 08:12:45.2 1:44:21
346 GOSSELIN PAUL E 124 08:12:54.5 1:44:30
347 VAN STRAELEN JIRI C 41 08:13:19.4 1:44:55
348 DIJK ALEXANDER D 126 08:13:42.5 1:45:18
349 FRICKER THOMAS E 125 08:13:51.7 1:45:27
350 SCHAAP MAARTEN E 126 08:13:55.5 1:45:31
351 MESSERLIN PHILIPPE E 127 08:14:00.1 1:45:36
352 DERKS RODERICK D 127 08:14:11.3 1:45:47
353 GITTON GUY G 6 08:14:17.5 1:45:53
354 KREMER RICHARD E 128 08:14:32.1 1:46:08
355 FILLON PATRICE D 128 08:14:46.0 1:46:22
356 DE GRAUWE PETER E 129 08:15:08.5 1:46:44
357 DE SCHEPPER TOM D 129 08:15:12.7 1:46:48
358 AWOUTERS MARK D 130 08:15:14.7 1:46:50
359 LEONET DENIS F 51 08:15:22.1 1:46:58
360 WAELKENS FILIP E 130 08:15:32.3 1:47:08
361 FRANCHINI GILLES F 52 08:16:17.7 1:47:53
362 JENINGA JASPER D 131 08:16:23.1 1:47:59
363 GOEGAN PIERRE F 53 08:16:37.8 1:48:13
364 PILARD GAEL D 132 08:17:09.3 1:48:45
365 KIENTZY PHILIPPE F 54 08:17:21.6 1:48:57
366 STAPS JOB C 42 08:17:38.1 1:49:14
367 HENDRIKS PAUL E 131 08:17:40.2 1:49:16
368 OUDOT ARNAUD D 133 08:17:52.4 1:49:28
369 HAEMERS BRUNO C 43 08:17:54.7 1:49:30
370 OUDSHOORN LOUIS D 134 08:17:57.5 1:49:33
371 VELLEHOOP LEONTIEN A 1 08:18:06.7 1:49:42
372 VAN DER VELDEN ROB E 132 08:18:38.3 1:50:14
373 RAAIJMAKERS CHRISTIAN E 133 08:18:43.5 1:50:19
374 JOOSTER D 135 08:18:45.6 1:50:21
375 DUYKERS MICHIEL D 136 08:19:27.4 1:51:03
376 DURAND BENOIT E 134 08:19:38.6 1:51:14
377 WILMAERTS JAN F 55 08:20:33.6 1:52:09
378 KUYL CARL E 135 08:20:40.2 1:52:16
379 CALES YVES E 136 08:21:14.1 1:52:50
380 HEIJL MARKO D 137 08:21:30.3 1:53:06
381 HARTENSTEIN BERNHARD E 137 08:21:31.4 1:53:07
382 VAN HOLLEBEKE SEBASTIEN D 138 08:21:48.4 1:53:24
383 WISPENNINCK BENNY C 44 08:21:50.5 1:53:26
384 RUSSIAS JACQUES G 7 08:22:17.7 1:53:53
385 SZYMOCHA JEAN MARIE F 56 08:22:22.4 1:53:58
386 ARENS JEAN CLAUDE F 57 08:22:28.6 1:54:04
387 MEERCHAEGE PATRICK F 58 08:22:31.0 1:54:07
388 THOMAS GASTON G 8 08:22:50.7 1:54:26
389 NEUMANN WOLFGANG E 138 08:22:51.4 1:54:27
390 DEBARLE JACQUES E 139 08:22:59.9 1:54:35
391 MOLINARI FREDERIC E 140 08:23:04.7 1:54:40
392 DURNEZ LIEVE AB 2 08:23:08.1 1:54:44
393 EMORINE PASCAL E 141 08:23:09.3 1:54:45
394 ALEN MAARTEN D 139 08:23:51.7 1:55:27
395 BRUNEEL BERNARD E 142 08:24:02.3 1:55:38
396 DESTREBECQ YOHAN D 140 08:24:11.2 1:55:47
397 MASSET NICOLAS C 45 08:24:43.8 1:56:19
398 LOUIS DANIEL D 141 08:25:10.9 1:56:46
399 PARENT SEBASTIEN D 142 08:25:25.5 1:57:01
400 VANDAMME GREGORY E 143 08:25:36.3 1:57:12
401 VRENKEN FRANK C 46 08:25:50.0 1:57:26
402 MOJBAEK OLE SKOVBO F 59 08:25:58.5 1:57:34
403 ROBERTI JEAN-PIERRE E 144 08:26:04.0 1:57:40
404 FONTESSE AGHANY D 143 08:26:25.5 1:58:01
405 KRALT TONNIE E 145 08:26:34.0 1:58:10
406 RUBAT HERVE E 146 08:26:38.3 1:58:14
407 JANSEN COR E 147 08:26:48.5 1:58:24
408 VANCUTSEM PHILIPPE D 144 08:26:57.0 1:58:33
409 CLERICI LUDOVIC F 60 08:27:03.9 1:58:39
410 VAND PETER G 9 08:27:15.5 1:58:51
411 KROON MAARTEN C 47 08:27:22.3 1:58:58
412 OSTER PIERRE G 10 08:27:29.0 1:59:05
413 BOGAERS JIMMY D 145 08:27:37.0 1:59:13
414 FRITSCH DAVID D 146 08:27:43.6 1:59:19
415 GUTIERREZ SIMON D 147 08:27:47.5 1:59:23
416 BUSAIN GUY E 148 08:28:22.0 1:59:58
417 ESSELIN GILLES E 149 08:28:34.7 2:00:10
418 BELMONT FRANCK D 148 08:28:45.7 2:00:21
419 ZIJLSTRA THIJS D 149 08:28:56.8 2:00:32
420 DESEINTEBEIN ANDRY E 150 08:29:05.0 2:00:41
421 TRAVIER LIONEL E 151 08:29:07.9 2:00:43
422 VAN CROMBRUGGE PHILIPPE E 152 08:29:18.2 2:00:54
423 LEWI WIM E 153 08:29:20.6 2:00:56
424 GERRITSEN MARTIN E 154 08:29:33.3 2:01:09
425 VERGAERT JOHAN D 150 08:29:39.2 2:01:15
426 TE BOEKHORST WANDER D 151 08:29:40.3 2:01:16
427 KILROY SEAN E 155 08:29:44.7 2:01:20
428 FOURSIN FABIAN E 156 08:29:51.5 2:01:27
429 VILLANCE JULIEN F 61 08:30:02.8 2:01:38
430 SEVESTRE DOMINIQUE E 157 08:30:13.4 2:01:49
431 FRUTIERE J.NOEL F 62 08:30:13.6 2:01:49
432 MAHUT BRUNO E 158 08:30:16.8 2:01:52
433 BOLLEN STIJN D 152 08:30:17.7 2:01:53
434 PESSINK MARK D 153 08:30:19.2 2:01:55
435 DE BAERDEMAEKER CHRIS D 154 08:30:24.4 2:02:00
436 DONKERS TWAN E 159 08:30:38.6 2:02:14
437 VANDEVELDE PIERRE F 63 08:30:46.6 2:02:22
438 GUTIERREZ JEAN MANUEL D 155 08:30:50.0 2:02:26
439 JAILLARD JULIEN C 48 08:31:10.6 2:02:46
440 CLARYSSE EDDY F 64 08:31:18.6 2:02:54
441 VAN WUMELBEKE BEN C 49 08:31:36.7 2:03:12
442 BLOM FONS E 160 08:31:45.6 2:03:21
443 RASSCHAERT DIRK E 161 08:31:54.2 2:03:30
444 MURER J.PAUL G 11 08:31:57.6 2:03:33
445 TER HART LEON D 156 08:32:08.6 2:03:44
446 COSTA ERIC E 162 08:32:11.3 2:03:47
447 MARIE PASCAL F 65 08:32:16.0 2:03:52
448 VAN POUCKE STEFAAN D 157 08:32:16.6 2:03:52
449 PENNINGS PIETER E 163 08:32:31.0 2:04:07
450 HARTMANN MICHEL F 66 08:32:34.0 2:04:10
451 DEPOURCQ ERIC E 164 08:32:44.1 2:04:20
452 LACOSTE J.LUC E 165 08:33:02.1 2:04:38
453 ESQUENET NICOLAS D 158 08:33:16.4 2:04:52
454 VAN SCHUPPEN MARIEKE A 2 08:33:20.4 2:04:56
455 BONTE ARNOUT D 159 08:33:22.7 2:04:58
456 STERKENS JOZEF F 67 08:33:32.1 2:05:08
457 HERMANS LIEVEN D 160 08:34:34.2 2:06:10
458 LAMERS BERRY D 161 08:34:37.1 2:06:13
459 CHRISTIAENS FREDERIK C 50 08:35:33.5 2:07:09
460 VAN WISSEN TON E 166 08:36:07.4 2:07:43
461 DUFROS BERNARD G 12 08:36:32.1 2:08:08
462 HAGEN MARIO E 167 08:36:47.3 2:08:23
463 DOBLER DENIS F 68 08:36:49.3 2:08:25
464 DARDIER JEAN MARC E 168 08:37:02.7 2:08:38
465 VAEGGIN CHRISTIAN D 162 08:37:18.1 2:08:54
466 DELAVAL MARC F 69 08:37:31.0 2:09:07
467 BOETIUS HANS E 169 08:37:37.7 2:09:13
468 MERABTI NORDINE E 170 08:37:48.1 2:09:24
469 LANFRANCHI SEBASTIEN D 163 08:37:54.3 2:09:30
470 MULDERS GERARD F 70 08:38:02.6 2:09:38
471 DUCROCQ STEPHANE E 171 08:38:11.0 2:09:47
472 MEIRE CHRISTOPHE D 164 08:38:22.2 2:09:58
473 MATHOT MICHAEL D 165 08:38:26.4 2:10:02
474 KEMPENEERS WIM E 172 08:38:44.2 2:10:20
475 BURET MICHEL F 71 08:38:57.2 2:10:33
476 DE HOOG THOMAS D 166 08:38:58.4 2:10:34
477 VAN GEFFEN GIJS F 72 08:39:00.2 2:10:36
478 SPRANGHERS WERNER F 73 08:39:01.7 2:10:37
479 DIJKSTRA ERICK E 173 08:39:12.4 2:10:48
480 VAN GEFFEN JOAN E 174 08:39:19.4 2:10:55
481 TORREKENS KRIS D 167 08:39:21.3 2:10:57
482 BRUGGEMAN KURT D 168 08:40:01.0 2:11:37
483 KAST SIMONE AB 3 08:40:04.4 2:11:40
484 MISTELI MICHAEL E 175 08:40:05.5 2:11:41
485 MARTIN BRUNO E 176 08:41:06.4 2:12:42
486 SOULIER CHRISTOPHE D 169 08:41:10.3 2:12:46
487 PETITFOUR JEAN LOUIS F 74 08:41:25.2 2:13:01
488 VAN NASSAU ARJAN E 177 08:41:46.8 2:13:22
489 MULDERS RUUD F 75 08:42:10.8 2:13:46
490 VAN WEVERENBERGH JORIS E 178 08:42:15.8 2:13:51
491 SCHRIJVERS RONNY D 170 08:42:18.0 2:13:54
492 SCHULTEN GEORGE E 179 08:42:21.6 2:13:57
493 HATSADOURIAN PHILIPPE E 180 08:42:42.5 2:14:18
494 BOLWERK JOEP E 181 08:42:59.1 2:14:35
495 MAILFAIT MICHEL F 76 08:43:25.3 2:15:01
496 RIJKEN HENK E 182 08:44:02.6 2:15:38
497 CHOUFFART JACQUES F 77 08:44:08.9 2:15:44
498 DIJKSTRA PIET E 183 08:44:11.6 2:15:47
499 ARNAULT BRUNO E 184 08:44:20.0 2:15:56
500 VANDERHASSELT KAREL F 78 08:44:52.9 2:16:28
501 DE VLIEGER STEVEN D 171 08:44:55.7 2:16:31
502 SLINGERLAND RICHARD D 172 08:44:58.3 2:16:34
503 NORMAND PATRICK E 185 08:45:02.5 2:16:38
504 CEULEMANS HANS D 173 08:45:04.2 2:16:40
505 LINDHOUT GERALD D 174 08:45:18.8 2:16:54
506 JOOSTENS ROB E 186 08:45:20.9 2:16:56
507 VAN DER LAAN FLOOR F 79 08:45:21.3 2:16:57
508 VANDENPLAS KURT E 187 08:45:29.1 2:17:05
509 VAN ENGELEN GERALD E 188 08:45:44.3 2:17:20
510 ROBIN ALAIN E 189 08:46:05.9 2:17:41
511 VANNSON ERIC D 175 08:46:12.4 2:17:48
512 VAN HOEVE ADRI F 80 08:46:30.6 2:18:06
513 WISPENNINCK THIERRY C 51 08:46:32.9 2:18:08
514 VERVIER FERNAND F 81 08:46:47.2 2:18:23
515 BEAUVAIS GILLES E 190 08:47:02.5 2:18:38
516 CNUDDE BERTRAND D 176 08:47:11.2 2:18:47
517 CAPRON MICHEL F 82 08:47:36.9 2:19:12
518 DE HOOG JORIS D 177 08:48:06.5 2:19:42
519 MILLE GILBERT G 13 08:48:27.0 2:20:03
520 HEKEL ANDRE E 191 08:48:28.3 2:20:04
521 ACHOUR ABDEL KARIM C 52 08:48:31.7 2:20:07
522 LIEBEN ROGER G 14 08:48:38.5 2:20:14
523 VERHEECKE CLEMENT JAN E 192 08:48:41.4 2:20:17
524 COENEN JEAN F 83 08:48:44.0 2:20:20
525 TORFS KURT D 178 08:48:51.9 2:20:27
526 VAN POUCKE JOHAN D 179 08:48:56.6 2:20:32
527 VAN KEMSEKE KOEN E 193 08:49:13.0 2:20:49
528 DHAENEKINT STIJN C 53 08:49:17.6 2:20:53
529 VANMARSENILLE ROHNNY E 194 08:49:27.9 2:21:03
530 VAN DAELE GERT D 180 08:49:41.0 2:21:17
531 FOULON DAVID D 181 08:50:10.5 2:21:46
532 MATHIEU BRUNO D 182 08:50:20.3 2:21:56
533 DEMEULEMEESTER FRANK E 195 08:50:23.8 2:21:59
534 DEN OTTER MARTIN G 15 08:50:31.0 2:22:07
535 RUTH DIDIER D 183 08:50:53.4 2:22:29
536 GALLET CLAUDE E 196 08:50:59.0 2:22:35
537 PENVERN CLAUDE F 84 08:51:05.4 2:22:41
538 GIRARDOT PASCAL E 197 08:51:21.5 2:22:57
539 VANTHOMME BART D 184 08:51:46.2 2:23:22
540 VAN DE WALLE DIRK E 198 08:51:47.2 2:23:23
541 DE BIE RENE E 199 08:51:54.7 2:23:30
542 VANSPRINGEL JOSEPH E 200 08:52:11.4 2:23:47
543 ONVLEE GIJS D 185 08:52:15.1 2:23:51
544 VAN RAVENZWAAIJ JEROEN E 201 08:52:18.8 2:23:54
545 SCHUMM ERWIN E 202 08:52:19.0 2:23:55
546 RAYMACKERS DIRK E 203 08:52:33.7 2:24:09
547 VEYS RIK F 85 08:52:39.6 2:24:15
548 VINCENTEN CHRIST F 86 08:52:48.3 2:24:24
549 HANQUET NICO D 186 08:52:53.5 2:24:29
550 BLED THIERRY E 204 08:53:23.0 2:24:59
551 LINDNER UWE JENS E 205 08:53:34.5 2:25:10
552 DUBREUIL NICOLAS D 187 08:53:36.2 2:25:12
553 MOENS PATRICK E 206 08:53:44.2 2:25:20
554 GORDTS HANS E 207 08:53:50.2 2:25:26
555 VANDERMAST GUIDO F 87 08:54:12.2 2:25:48
556 VAN HAMERSVELD PIM D 188 08:54:24.2 2:26:00
557 SCHMIT GERARD F 88 08:54:34.2 2:26:10
558 PASSARD MATTHIEU C 54 08:54:40.1 2:26:16
559 DEMIDDEL KEN D 189 08:55:30.5 2:27:06
560 BERG JEROEN E 208 08:55:46.2 2:27:22
561 LAMBERT ALAIN F 89 08:56:07.0 2:27:43
562 MOUTON ETIENNE E 209 08:56:18.9 2:27:54
563 BOHETS WILLY F 90 08:56:30.5 2:28:06
564 BIERMANS GUST F 91 08:56:35.0 2:28:11
565 VERHAAR BOUDEWIJN D 190 08:56:42.1 2:28:18
566 VAN DEN OEVER ROB E 210 08:56:50.1 2:28:26
567 COOPMAN PATRICK F 92 08:56:52.8 2:28:28
568 VANCAUWENBERGH GUY E 211 08:57:26.3 2:29:02
569 NOORLAND ED E 212 08:57:34.4 2:29:10
570 VAN DE VELDE WIM E 213 08:57:35.8 2:29:11
571 BECKX TOM D 191 08:57:55.2 2:29:31
572 JERAS DICK F 93 08:58:29.3 2:30:05
573 SOLANDER RALF E 214 08:58:43.0 2:30:19
574 HEINZ CHRISTOPH E 215 08:58:44.4 2:30:20
575 OCKELOEN CHRIS F 94 08:58:45.2 2:30:21
576 MISEREZ WIM C 55 08:58:46.0 2:30:22
577 MALIEPAARD PATRICK E 216 08:58:54.3 2:30:30
578 QUINT GERRIT F 95 08:58:54.4 2:30:30
579 RASMUSSEN HENRIK E 217 08:59:08.3 2:30:44
580 DANNAU BRUNO E 218 08:59:09.1 2:30:45
581 WANDLER SEBASTIEN C 56 08:59:40.5 2:31:16
582 TOSIN YVAN F 96 08:59:40.8 2:31:16
583 AMERLYNCK FREDERIK D 192 08:59:54.3 2:31:30
584 MARLIER STEVEN D 193 09:00:07.9 2:31:43
585 DE JONG MICHEL E 219 09:00:09.0 2:31:45
586 VAN DE VOORT GERARD C 57 09:00:10.4 2:31:46
587 JACOBS THEO F 97 09:01:03.9 2:32:39
588 LECOUP NIEK F 98 09:01:10.1 2:32:46
589 LEMOSY CLAUDE F 99 09:01:20.2 2:32:56
590 KOCH ROGIER D 194 09:01:33.4 2:33:09
591 VERBEEK JEAN LUC F 100 09:01:45.6 2:33:21
592 VAN BARNEVELD MARC E 220 09:01:58.0 2:33:34
593 VAN BRANTEGEM MARC E 221 09:02:01.5 2:33:37
594 AALBERS HENK D 195 09:02:02.0 2:33:38
595 WASTIELS LUCIEN F 101 09:02:12.3 2:33:48
596 BEYENS JEROEN C 58 09:02:18.8 2:33:54
597 STEVENS WILLY F 102 09:02:56.0 2:34:32
598 VONK GUUS E 222 09:03:41.9 2:35:17
599 BRAYE JACQUES E 223 09:03:49.3 2:35:25
600 BALTISEN HARRY F 103 09:04:06.0 2:35:42
601 ZURBACH PASCAL E 224 09:04:34.8 2:36:10
602 STUSGEN KARL E 225 09:04:37.8 2:36:13
603 DEMEESTER DAVID D 196 09:04:44.9 2:36:20
604 WATIER ERIC E 226 09:04:59.6 2:36:35
605 KOLLNER MARTIN E 227 09:05:00.7 2:36:36
606 BENOIT OLIVIER D 197 09:05:03.9 2:36:39
607 BORSBOOM PIET E 228 09:05:20.8 2:36:56
608 REGRIGNY GERARD G 16 09:05:32.1 2:37:08
609 SKAALUM OLAV F 104 09:05:38.0 2:37:14
610 WANDERS JORIS D 198 09:05:49.3 2:37:25
611 STUBBE MARC E 229 09:06:17.4 2:37:53
612 RADET LAURENT F 105 09:06:41.2 2:38:17
613 DEVETTER EMIEL F 106 09:06:54.0 2:38:30
614 VAN DER VEER TON E 230 09:07:08.8 2:38:44
615 VAN DE KLUNDERT JACK F 107 09:07:12.8 2:38:48
616 FEYS PATRICK E 231 09:07:20.8 2:38:56
617 VANCUTSEM JOEL E 232 09:07:38.7 2:39:14
618 PRONK ANNETTE AB 4 09:07:56.0 2:39:32
619 ROMKENS PAUL E 233 09:07:56.6 2:39:32
620 EBDRUP HENRIK E 234 09:08:08.9 2:39:44
621 LINKIS KASPAR F 108 09:08:12.8 2:39:48
622 MICHEL FRANK E 235 09:08:32.3 2:40:08
623 VAN DE MOORTELE RUDY E 236 09:08:51.3 2:40:27
624 BRUYNSEELS ERIK D 199 09:09:00.2 2:40:36
625 VONDINT URNT D 200 09:09:38.8 2:41:14
626 SCHREUDER MAX E 237 09:09:48.3 2:41:24
627 BARBERET PHILIPPE E 238 09:09:48.8 2:41:24
628 FRANKEN ADRIE E 239 09:09:50.2 2:41:26
629 VAN LANKVELD MARY E 240 09:11:13.2 2:42:49
630 FILLON JOEL E 241 09:11:16.3 2:42:52
631 LISBY MORTEN E 242 09:11:17.0 2:42:53
632 VAN MOORLEGHEM DIDIER E 243 09:11:37.2 2:43:13
633 DEMONIE LODE E 244 09:11:40.7 2:43:16
634 BRANDERS HARRY E 245 09:11:55.7 2:43:31
635 VERSTAPPEN MICHEIL D 201 09:12:03.4 2:43:39
636 ROBIN HUGO C 59 09:12:11.3 2:43:47
637 PEETERI LUDO D 202 09:12:20.4 2:43:56
638 VANHEUVERSWIJN JAN PIETER E 246 09:12:21.7 2:43:57
639 LEFEVRE KOEN E 247 09:12:22.4 2:43:58
640 SPOOREN PATRICK E 248 09:12:46.0 2:44:22
641 WAUBEN ALEX E 249 09:12:52.5 2:44:28
642 ROMBEEK NANNO E 250 09:13:16.2 2:44:52
643 MAS JOHAN E 251 09:13:38.4 2:45:14
644 BENDERS PETER E 252 09:13:45.7 2:45:21
645 VEN HEYDEN JOHAN F 109 09:13:53.9 2:45:29
646 MAINEULT BRUNO E 253 09:13:56.7 2:45:32
647 JOURDOIS LUDOVIC E 254 09:14:11.7 2:45:47
648 JACQUOT JEAN MARC E 255 09:14:13.4 2:45:49
649 AERTS DIRK E 256 09:14:25.9 2:46:01
650 THEUNISSEN GER G 17 09:14:46.8 2:46:22
651 WESSELS PETER D 203 09:16:20.5 2:47:56
652 ROOR JOHN F 110 09:16:25.2 2:48:01
653 T KINT JOACHIM D 204 09:16:35.5 2:48:11
654 RICHARD PHILIPPE F 111 09:16:56.3 2:48:32
655 SPIT WOUTER D 205 09:17:04.1 2:48:40
656 GAUTHERAT SERGE E 257 09:17:17.2 2:48:53
657 PERNEY BERNARD F 112 09:17:33.1 2:49:09
658 NABIGD MICHAEL E 258 09:17:43.0 2:49:19
659 THOMAS LUC E 259 09:17:53.4 2:49:29
660 MOUTONNET FREDERIC D 206 09:18:10.3 2:49:46
661 EIGSTER WERNER D 207 09:18:52.4 2:50:28
662 ROERDAM THOMAS F 113 09:18:57.4 2:50:33
663 BOS WILLEM E 260 09:19:01.6 2:50:37
664 NICOLIER GABRIEL F 114 09:19:20.9 2:50:56
665 TER HART MARCEL D 208 09:19:21.9 2:50:57
666 HAINIGUE JONATHAN C 60 09:19:24.2 2:51:00
667 KLOKGIETERS HANS E 261 09:19:26.1 2:51:02
668 DE HAAN FONS E 262 09:19:35.3 2:51:11
669 THUIJS FRANK D 209 09:19:35.5 2:51:11
670 BRODERS JURGEN D 210 09:19:48.5 2:51:24
671 AMANN RENE D 211 09:20:32.9 2:52:08
672 MICHIELS GUIDO E 263 09:20:38.2 2:52:14
673 SIEGEL RAYMOND F 115 09:21:25.7 2:53:01
674 REDING ROLAND E 264 09:21:38.8 2:53:14
675 RAUSES NICOLAS C 61 09:21:50.0 2:53:26
676 GEENEN MARC F 116 09:22:15.3 2:53:51
677 VAN LIEMT BERNADUS F 117 09:22:24.5 2:54:00
678 LEHNERT OLIVIER D 212 09:22:31.1 2:54:07
679 VAN DER KOLK THIJS E 265 09:23:04.0 2:54:40
680 MANS MICHAEL D 213 09:23:30.8 2:55:06
681 PLUIS JEAN E 266 09:23:38.6 2:55:14
682 VERBRUGGEN WIM D 214 09:23:39.9 2:55:15
683 VERNET PASCAL E 267 09:23:47.7 2:55:23
684 PAVWELS ALAIN E 268 09:24:04.9 2:55:40
685 VERMEULEN ROB Hom 1 09:24:05.1 2:55:41
686 DERKSEN BENNIE F 118 09:24:10.3 2:55:46
687 DEROZIER ALAIN G 18 09:24:26.1 2:56:02
688 BORYS ARNAUD D 215 09:24:37.2 2:56:13
689 LOUYET MARCEL F 119 09:24:46.3 2:56:22
690 BAAN KEES E 269 09:25:09.3 2:56:45
691 MESTDAG PIET E 270 09:25:12.1 2:56:48
692 DE MOL DIRK E 271 09:25:31.7 2:57:07
693 BENDERS EDWIN D 216 09:25:34.4 2:57:10
694 VAN DER LEEW JELLE F 120 09:25:52.9 2:57:28
695 VANDEN WIJNGAERT DIMITRI D 217 09:25:58.8 2:57:34
696 NIELSEN JOHN E 272 09:26:06.9 2:57:42
697 KORVING MILO D 218 09:26:21.5 2:57:57
698 RENSON CLAUDE D 219 09:26:49.5 2:58:25
699 OLIVIER ERIC D 220 09:26:52.3 2:58:28
700 FRANCOIS HERVE D 221 09:26:55.8 2:58:31
701 VANDEWALLE WOUTER E 273 09:27:05.6 2:58:41
702 ALFARO ROSO JOSE E 274 09:27:27.5 2:59:03
703 GARNODIER VERONIQUE AB 5 09:27:31.9 2:59:07
704 KROMHOUT HERMAN G 19 09:27:40.5 2:59:16
705 DUCHENE REGIS E 275 09:28:15.5 2:59:51
706 MINNART ROBERT G 20 09:28:23.9 2:59:59
707 PEERLINGS MAARTEN D 222 09:28:27.5 3:00:03
708 CAPPITEL DANIEL F 121 09:29:03.4 3:00:39
709 VAN ACKER TOM E 276 09:29:29.0 3:01:05
710 DECOMBES WALTER F 122 09:29:51.5 3:01:27
711 COOLEN HANS E 277 09:30:29.7 3:02:05
712 DILLEN GODFRIED F 123 09:30:37.3 3:02:13
713 JUNTE JEROEN C 62 09:31:09.0 3:02:45
714 COKELAERE JOHAN E 278 09:31:14.9 3:02:50
715 SPADA GIORGIO D 223 09:31:17.6 3:02:53
716 DAMS GILBERT D 224 09:31:28.8 3:03:04
717 VAN DER HEYDEN MARC E 279 09:31:37.6 3:03:13
718 NOLLET FRANS F 124 09:31:42.4 3:03:18
719 THEIS CHRISTIAN F 125 09:32:19.3 3:03:55
720 BASCOP PASCAL E 280 09:32:23.8 3:03:59
721 DE JONG KOOS E 281 09:32:36.2 3:04:12
722 DEN OUDEN PATRICK D 225 09:32:39.3 3:04:15
723 VEENMAN WALTER E 282 09:32:45.6 3:04:21
724 SCHMALTZ GERARD F 126 09:32:53.3 3:04:29
725 BREUGEL EDWIN D 226 09:33:02.3 3:04:38
726 RONSIJN DIRK E 283 09:33:34.5 3:05:10
727 LORRAIN PASCAL F 127 09:33:58.3 3:05:34
728 CAPPENS RUDU F 128 09:34:00.2 3:05:36
729 JORIS ALEX F 129 09:34:44.9 3:06:20
730 ZOLLINO ANTHONY C 63 09:35:13.6 3:06:49
731 VERCRUYSSE ERWIN E 284 09:35:59.0 3:07:35
732 CABARET JEAN JACQUES F 130 09:36:00.0 3:07:36
733 HUYBRECHTS ERIK F 131 09:36:05.6 3:07:41
734 HASSAINIA CHERIF E 285 09:36:11.6 3:07:47
735 FAURE PIERRE E 286 09:36:13.8 3:07:49
736 KOENIGSECKER JEAN CLAUDE F 132 09:36:16.5 3:07:52
737 DUBAIL CATHERINE AB 6 09:36:46.1 3:08:22
738 GHIJS BART D 227 09:36:55.5 3:08:31
739 NIELSEN ARNE F 133 09:37:09.9 3:08:45
740 TYTGAT PETER D 228 09:37:16.2 3:08:52
741 PLATON DIDIER F 134 09:37:29.8 3:09:05
742 CENTLIVRE FRANCK C 64 09:37:52.9 3:09:28
743 CHASSARD STEPHANE E 287 09:38:29.6 3:10:05
744 HENDRIKX MAURITS D 229 09:38:41.7 3:10:17
745 PANNEKOEK LENNERT C 65 09:38:58.8 3:10:34
746 PANNEKOEK JOHN E 288 09:39:00.0 3:10:36
747 HEYNS WALTER E 289 09:39:20.4 3:10:56
748 NAVET JEAN LUC E 290 09:39:23.9 3:10:59
749 DEPICKER ALAIN E 291 09:39:38.6 3:11:14
750 HOOGENDOORN JACO E 292 09:39:46.6 3:11:22
751 OP’T EYNDE PATRICK E 293 09:39:54.0 3:11:30
752 RANIERO ROMEO D 230 09:40:04.3 3:11:40
753 KNUBBEN ALAIN E 294 09:40:14.5 3:11:50
754 GUICHARD ERIC E 295 09:40:30.5 3:12:06
755 SCHOENENBERG HENRI E 296 09:40:30.7 3:12:06
756 PINCKERS FRANCIS E 297 09:40:31.7 3:12:07
757 SCHUURS JONAN E 298 09:40:32.1 3:12:08
758 GROEN BOB F 135 09:40:42.3 3:12:18
759 GOEDE PETER F 136 09:40:47.0 3:12:23
760 SMAN PETER F 137 09:40:54.0 3:12:30
761 HEYLENS JEAN LUC F 138 09:40:55.4 3:12:31
762 MAILLARD DANIEL E 299 09:41:35.1 3:13:11
763 VAN DEN BERGH WALTER F 139 09:41:40.9 3:13:16
764 WAECKENS KRIS D 231 09:42:12.1 3:13:48
765 KIMMEL PHILIPPE E 300 09:42:17.2 3:13:53
766 SPIJKERS CARLA AB 7 09:42:25.0 3:14:01
767 KETTLER GEORGES F 140 09:43:25.8 3:15:01
768 TROSSAERT JACKY F 141 09:43:27.9 3:15:03
769 HAAGH PETER E 301 09:43:49.1 3:15:25
770 DE RIDDER BART D 232 09:44:03.4 3:15:39
771 COLLE PASCAL E 302 09:44:05.3 3:15:41
772 STAS CHRISTOPHE D 233 09:44:14.4 3:15:50
773 SIMONSEN JORGEN E 303 09:44:27.3 3:16:03
774 LIBERT HENRY E 304 09:44:39.6 3:16:15
775 RICHARD ROLAND F 142 09:45:12.8 3:16:48
776 DOMINIQUE PHILIPPE F 143 09:45:42.4 3:17:18
777 BODE HEIKO E 305 09:45:55.3 3:17:31
778 SCHINKEL HELMUT F 144 09:45:57.5 3:17:33
779 RYTTER JESPER D 234 09:46:02.8 3:17:38
780 VAN GULIK JAN E 306 09:46:09.6 3:17:45
781 DE COCK HUGO E 307 09:46:40.7 3:18:16
782 BELLEFLAMME LUC F 145 09:46:43.8 3:18:19
783 VAN WETTERE ANTOINE G 21 09:47:47.4 3:19:23
784 BONATI JEAN PIERRE E 308 09:47:49.8 3:19:25
785 ZOLLINO ALEXANDRE C 66 09:47:53.7 3:19:29
786 RUHLMANN JEAN PHILIPPE F 146 09:48:20.0 3:19:56
787 LIEKENS JOHN G 22 09:48:24.6 3:20:00
788 VON GRUMBKOW CHRIS G 23 09:48:25.4 3:20:01
789 DE WILDE ANDRE F 147 09:48:50.5 3:20:26
790 DE VRIES ARJO D 235 09:48:51.3 3:20:27
791 LEONARD ALAIN E 309 09:49:01.4 3:20:37
792 SAELEMAKERS JAN E 310 09:49:15.1 3:20:51
793 DEZILLIE NIK D 236 09:49:24.2 3:21:00
794 VAN GORKUM EMIL D 237 09:49:30.7 3:21:06
795 MOLLER STEEN E 311 09:49:49.5 3:21:25
796 PETITFOUR J.PAUL F 148 09:50:35.4 3:22:11
797 PAVONE SEBASTIEN D 238 09:51:05.9 3:22:41
798 VAN VLIET DIM F 149 09:52:14.7 3:23:50
799 WAHL ALAIN E 312 09:53:02.1 3:24:38
800 BAOUR HERVE D 239 09:53:11.9 3:24:47
801 TERPSTRA DURK D 240 09:53:17.1 3:24:53
802 PARMENTIER GUY E 313 09:53:19.3 3:24:55
803 DE VUYST JEAN MARIE F 150 09:53:35.2 3:25:11
804 PARMEYER D 241 09:53:50.7 3:25:26
805 WILLEMS MARK E 314 09:53:56.8 3:25:32
806 VAN HENSEN VAN UNINGEN RENE E 315 09:53:57.5 3:25:33
807 VIERHUIZEN MARTIN D 242 09:54:15.8 3:25:51
808 SAINSBURY DOUGLAS E 316 09:54:21.9 3:25:57
809 MARIUS MAARTEN C 67 09:54:27.2 3:26:03
810 SLOTH LISBJERG FREDDIE F 151 09:54:48.8 3:26:24
811 VAN OPSTAL INEKE AB 8 09:55:09.6 3:26:45
812 VAN SUMMEREN BERT F 152 09:55:54.6 3:27:30
813 MENSEN RONALD C 68 09:57:14.3 3:28:50
814 NOUWENS MARC E 317 09:57:51.6 3:29:27
815 NOUWENS THEO E 318 09:57:51.9 3:29:27
816 KOK WIM F 153 09:58:59.8 3:30:35
817 WATERVAL DOMINIQUE D 243 09:59:25.9 3:31:01
818 PARMENTIER DAVID D 244 09:59:33.6 3:31:09
819 AUZERAL BENOIT E 319 09:59:49.1 3:31:25
820 BOUCHART MARCEL D 245 09:59:49.4 3:31:25
821 DRONKERT ARJEN F 154 09:59:51.0 3:31:27
822 GILLESSE KEES E 320 09:59:54.3 3:31:30
823 SPOOREN STEFAAN E 321 10:00:40.0 3:32:16
824 SCHOLTEN RENE D 246 10:00:52.4 3:32:28
825 VAN DE HEUVEL ROB D 247 10:00:52.9 3:32:28
826 NOEL ROBERT G 24 10:01:25.5 3:33:01
827 KNULST MARCO D 248 10:01:28.8 3:33:04
828 VLOEBERGHS FREDERIC D 249 10:01:38.2 3:33:14
829 LADENBURGER CHRISTIAN E 322 10:01:38.5 3:33:14
830 BRAYER BRUNO E 323 10:02:04.9 3:33:40
831 DE NEVE STEVEN D 250 10:02:54.5 3:34:30
832 KROES ARNO D 251 10:03:14.6 3:34:50
833 JENSEN ERIN MOLGAARD G 25 10:04:29.0 3:36:05
834 LAFAY JEAN CLAUDE F 155 10:05:00.5 3:36:36
835 JANSEN VITAL D 252 10:05:03.6 3:36:39
836 BEURET JEAN MICHEL F 156 10:05:31.1 3:37:07
837 MARQUILLE FLORENT D 253 10:06:11.3 3:37:47
838 DEPELS PASCAL D 254 10:06:16.2 3:37:52
839 LEICK MICHAEL E 324 10:07:17.7 3:38:53
840 TROSSAERT KRISTOF C 69 10:07:18.8 3:38:54
841 BULTHUIS MARTIN F 157 10:08:07.1 3:39:43
842 HOL RENE D 255 10:08:08.6 3:39:44
843 LABOUZ STEPHAN E 325 10:08:45.4 3:40:21
844 VAN GEFFEN FERRY D 256 10:08:46.4 3:40:22
845 VIDELER BON D 257 10:10:17.2 3:41:53
846 WILLEMSEN HENK E 326 10:10:50.8 3:42:26
847 VAN DER VOORDEN DIRK E 327 10:10:59.3 3:42:35
848 WENS PIET E 328 10:11:03.0 3:42:39
849 BIJL PETER C 70 10:11:47.9 3:43:23
850 DE ROECK LUC E 329 10:12:12.9 3:43:48
851 BOILLOT ANDRE G 26 10:12:23.9 3:43:59
852 HUFFSCHMIDT FLORIAN C 71 10:12:31.6 3:44:07
853 THILL JEFF E 330 10:12:42.1 3:44:18
854 VAN DER VOORDEN HENK E 331 10:12:50.4 3:44:26
855 STOCKX LUC E 332 10:13:08.4 3:44:44
856 DUVINAGE JEAN G 27 10:14:01.5 3:45:37
857 VAN MALDEREN GEERT E 333 10:14:23.0 3:45:59
858 SERNEELS LOUIS F 158 10:14:23.1 3:45:59
859 HARDERWIJK LENNART E 334 10:15:23.1 3:46:59
860 DHONDT KRIS E 335 10:15:46.3 3:47:22
861 RIBBERT GUNNAR E 336 10:16:12.0 3:47:48
862 KIEKENS KRISTOF C 72 10:17:19.3 3:48:55
863 RASMUSSEN KENNETH D 258 10:17:23.1 3:48:59
864 PELTIER FRANCIS G 28 10:17:41.0 3:49:17
865 SCHIPPER REMCO E 337 10:17:48.3 3:49:24
866 VAN GELPEREN ALLARD E 338 10:18:05.2 3:49:41
867 ROESSINK ROY D 259 10:18:49.6 3:50:25
868 DE BOER BOUKE D 260 10:19:25.7 3:51:01
869 GHIJS ETIENNE F 159 10:19:51.0 3:51:27
870 PIGGEN JOOST D 261 10:20:29.4 3:52:05
871 SPIERINGS TOM E 339 10:20:54.2 3:52:30
872 HOGH JAN E 340 10:20:59.3 3:52:35
873 VANDEN WIJNGAERT ARNE D 262 10:21:08.0 3:52:44
874 HENDRIKS ARJAN E 341 10:21:25.0 3:53:01
875 HANSEN GERT F 160 10:22:00.3 3:53:36
876 VAN NOORD NICO E 342 10:22:08.4 3:53:44
877 PARIDAENS WILL D 263 10:22:10.6 3:53:46
878 HARDERWIJK FLORIAN D 264 10:22:14.1 3:53:50
879 TAQUET ROLAND F 161 10:22:33.6 3:54:09
880 BROWET BERNARD F 162 10:22:34.7 3:54:10
881 VAN HAESENDONCK MARIO D 265 10:22:37.4 3:54:13
882 SCHOUPPE ROBIN D 266 10:23:47.1 3:55:23
883 RAYMAEKERS KURT D 267 10:24:57.8 3:56:33
884 GYDE SAM D 268 10:24:58.7 3:56:34
885 BUYL PETER E 343 10:25:09.0 3:56:45
886 BERTRAND PIERRE F 163 10:25:39.8 3:57:15
887 SIJBERDEN MARIJN E 344 10:25:52.3 3:57:28
888 DE VRIES PAUL E 345 10:26:44.0 3:58:20
889 HENDERIX TIM D 269 10:27:15.6 3:58:51
890 DE PEUTER DOMINIC D 270 10:27:15.6 3:58:51
891 TEN BERGE MARCEL E 346 10:27:25.7 3:59:01
892 BICKE GUNTHER D 271 10:28:14.1 3:59:50
893 DANCKEART NOEL F 164 10:28:15.8 3:59:51
894 VAN DE GRAAF MARC D 272 10:28:20.1 3:59:56
895 BAPTIST ERIC C 73 10:28:51.5 4:00:27
896 BAKKER ERIK C 74 10:30:48.5 4:02:24
897 J DE BEUZE HANS E 347 10:31:00.5 4:02:36
898 RONDEEL JAN E 348 10:31:22.7 4:02:58
899 NUNINGA BERT E 349 10:31:24.9 4:03:00
900 VAN BERKUM ROB E 350 10:31:55.1 4:03:31
901 VAN BUYNIKE RUDI E 351 10:31:57.5 4:03:33
902 LUDEKING KJELD G 29 10:32:13.3 4:03:49
903 LIETAER LUC E 352 10:32:42.0 4:04:18
904 VAN BURIK MARCEL E 353 10:32:47.1 4:04:23
905 VINKE BOB D 273 10:34:21.2 4:05:57
906 BORRAS AUGUSTIN D 274 10:34:31.4 4:06:07
907 BOLDER IGNAS F 165 10:35:14.0 4:06:50
908 SOULE DAVID D 275 10:35:46.8 4:07:22
909 BRION CHARLES D 276 10:35:54.6 4:07:30
910 VAN VEEN TIM C 75 10:36:09.3 4:07:45
911 NATER LEONARD E 354 10:36:16.2 4:07:52
912 GIGLIOTTI GIUSEPPE F 166 10:36:42.1 4:08:18
913 MATTHIJSSE SJAKO E 355 10:37:05.2 4:08:41
914 HARTOS JACOB F 167 10:37:35.6 4:09:11
915 VAN ROGEN FILIP E 356 10:38:23.1 4:09:59
916 HAMM GERD G 30 10:38:37.0 4:10:13
917 HOSKENS PETER C 76 10:39:05.1 4:10:41
918 STEYNS ED E 357 10:39:44.7 4:11:20
919 VAN WUMELBEKE JOHAN F 168 10:39:53.0 4:11:29
920 VIJVERMAN JAN E 358 10:40:30.1 4:12:06
921 VERSTEEG HENK F 169 10:40:31.6 4:12:07
922 VANDEWEYER WOUTER C 77 10:40:35.9 4:12:11
923 DE JOOP LANGE E 359 10:41:19.5 4:12:55
924 VAN VELZEN PASCAL D 277 10:43:19.0 4:14:55
925 DYRVIG JOHN E 360 10:43:41.2 4:15:17
926 DEGEE JOHNY E 361 10:44:00.8 4:15:36
927 MEERSSCHAERT PATRICK E 362 10:45:37.5 4:17:13
928 BUTER MARTIN E 363 10:45:55.2 4:17:31
929 BECK SOREN F 170 10:46:13.7 4:17:49
930 FRANCK BENOIT D 278 10:47:13.9 4:18:49
931 OORD NICO E 364 10:47:38.5 4:19:14
932 BOODT JOHAN E 365 10:48:21.5 4:19:57
933 POLAND PETER E 366 10:48:21.6 4:19:57
934 VAN LEEUWEN JOS E 367 10:48:23.7 4:19:59
935 JURRIE BOS C 78 10:49:11.5 4:20:47
936 LEO JEAN YVES F 171 10:49:19.3 4:20:55
937 VAN COPPERNOLLE RONNY E 368 10:49:37.5 4:21:13
938 DEVONDEL WILLIAM D 279 10:51:21.5 4:22:57
939 SLOTH LISBJERG PIA AB 9 10:51:53.4 4:23:29
940 OTTEN ROGER F 172 10:52:02.7 4:23:38
941 TIGGELOVEN PIM C 79 10:52:04.8 4:23:40
942 REEDIJK ANNE-MIEKE AB 10 10:52:42.9 4:24:18
943 NICOU CHRISTIAN F 173 10:54:20.0 4:25:56
944 BRUG HENK JAN D 280 10:55:08.0 4:26:44
945 VAN KATS LEX F 174 10:55:27.4 4:27:03
946 WILHELM PIERRE G 31 10:55:30.1 4:27:06
947 BOMME BERT D 281 10:55:42.0 4:27:18
948 BRANDERS BART E 369 10:55:47.2 4:27:23
949 KOONSTRA ANTON D 282 10:55:49.9 4:27:25
950 BOS JEROEN EB D 283 10:55:56.9 4:27:32
951 HAVERMANS ROB E 370 10:57:56.0 4:29:32
952 ELSEN LAURENS D 284 10:58:06.7 4:29:42
953 EGGEN BAPTIST E 371 10:59:29.2 4:31:05
954 GRIMAUD JEAN MARC F 175 10:59:58.6 4:31:34
955 MENNESON FABRICE D 285 11:00:13.3 4:31:49
956 PEETERS HENRI E 372 11:01:26.5 4:33:02
957 VAN BIEMEN HAROLD E 373 11:04:01.0 4:35:37
958 KUUP PETER I 1 11:06:05.2 4:37:41
959 VAN WALEN RUBEN D 286 11:07:26.0 4:39:02
960 DE VRIJER MAAIKE A 3 11:07:53.4 4:39:29
961 VECHOEVEN JAAP D 287 11:09:02.3 4:40:38
962 SCHRIEKS MARK C 80 11:09:10.2 4:40:46
963 VAN DE VEN TAMARA A 4 11:11:40.3 4:43:16
964 DE GOUW GIELJAN F 176 11:11:53.9 4:43:29
965 DHAENEKINT MARC F 177 11:11:56.7 4:43:32
966 DEBOER HARBERT E 374 11:13:01.4 4:44:37
967 BELSACK BERNARD E 375 11:13:04.6 4:44:40
968 HOEVE MAARTEN JAN D 288 11:14:42.3 4:46:18
969 VAN GARDEREN MARTEN D 289 11:15:38.6 4:47:14
970 VAN DEN HEEDE GEERT F 178 11:16:23.7 4:47:59
971 PALINGS JAN F 179 11:16:32.5 4:48:08
972 KURVERS SJORS C 81 11:16:39.2 4:48:15
973 SILLEKENS FRANCK E 376 11:16:49.3 4:48:25
974 JEHEE BART F 180 11:17:43.5 4:49:19
975 DE JONG RAMON D 290 11:18:02.7 4:49:38
976 LECLERE GERARD G 32 11:20:30.3 4:52:06
977 DOLMAN ILONA A 5 11:20:33.7 4:52:09
978 SCHUT KEES D 291 11:20:39.7 4:52:15
979 METS CEES G 33 11:21:03.3 4:52:39
980 LAMOTHE YVES G 34 11:22:58.0 4:54:34
981 JUNTE JAN F 181 11:23:18.3 4:54:54
982 HOOIJENGA THEO E 377 11:23:18.3 4:54:54
983 VAN BAKEL BAS E 378 11:24:00.3 4:55:36
984 NIESTADT WIL E 379 11:24:06.6 4:55:42
985 LAMMERSE FRANK E 380 11:24:34.1 4:56:10
986 VAN BUREN ADRIE E 381 11:25:05.1 4:56:41
987 VERMEER PETER D 292 11:27:21.2 4:58:57
988 DE BAKKER JOOS D 293 11:27:36.0 4:59:12
989 VAN DER LAAN ROB E 382 11:29:51.8 5:01:27
990 WESELING TON E 383 11:30:46.4 5:02:22
991 DINTERICH BRUNO E 384 11:32:11.3 5:03:47
992 KRAAIJENHAGEN JAAP F 182 11:34:59.9 5:06:35
993 NEMETI TAMAS D 294 11:37:27.2 5:09:03
994 BIANCHI SERGIO F 183 11:39:26.5 5:11:02
995 VAN DER LEE RINO E 385 11:39:45.8 5:11:21
996 VAN DER LEE CRESJAN E 386 11:39:52.5 5:11:28
997 SCHEER YVES E 387 11:42:05.4 5:13:41
998 VAN BERLO MARTIN E 388 11:42:14.6 5:13:50
999 DEKEMA DIRK F 184 11:42:28.3 5:14:04
1000 VAN DOMMELEN FRANS E 389 11:43:36.6 5:15:12
1001 VAN DOMMELEN CORJO E 390 11:44:56.5 5:16:32
1002 SIMONIS SERGE E 391 11:47:43.2 5:19:19
1003 VAN DER WAL REMMERT D 295 11:47:50.1 5:19:26
1004 DE BOER THEO G 35 11:49:44.8 5:21:20
1005 JANSSEN MARCEL E 392 11:50:33.5 5:22:09
1006 JUNTE REMCO C 82 11:50:34.5 5:22:10
1007 REIJBROEK RENE E 393 11:51:22.6 5:22:58
1008 HILHORST ROB D 296 11:51:30.5 5:23:06
1009 VERSTRATEN HANS F 185 11:54:21.5 5:25:57
1010 MEYER ROB E 394 11:59:42.3 5:31:18
1011 JUNTE ERIK C 83 12:01:19.8 5:32:55
1012 DAMIEN OLIVIER E 395 12:03:13.7 5:34:49
1013 PLUGGE RONALD E 396 12:04:29.4 5:36:05
1014 DE WEERT THEO E 397 12:05:53.4 5:37:29
1015 VAN MINNEN BAUCKE D 297 12:06:02.3 5:37:38
1016 BEENAKKER MARTIJN D 298 12:06:35.3 5:38:11
1017 JANSEN RENE D 299 12:09:58.1 5:41:34
1018 BLAKE ROBERT E 398 12:11:13.3 5:42:49
1019 VAN HARTEN ERWIN D 300 12:11:41.9 5:43:17
1020 VAN NIELEN BART E 399 12:11:56.9 5:43:32
1021 MAGYAR ANDRAS D 301 12:12:09.5 5:43:45
1022 VAN DONK IZAK E 400 12:13:22.0 5:44:58
1023 GRIFFIONEN ALEX E 401 12:14:03.0 5:45:39
1024 BOER JORIEN AB 11 12:14:03.3 5:45:39
1025 VOGELS RIAN AB 12 12:16:25.3 5:48:01
1026 PETERSEN KELD F 186 12:18:13.0 5:49:49
1027 GERST JEAN MARC F 187 12:18:49.8 5:50:25
1028 OLIVO CHRISTIAN E 402 12:23:14.8 5:54:50
1029 KLESMAN KEES F 188 12:30:10.3 6:01:46
1030 COMOY MARCEL E 403 12:40:49.7 6:12:25
1031 LABASSE HENRI G 36 12:46:30.8 6:18:06

Voir -> Les 3 Ballons 2008 : Résultats du Sénior 104 km

Na górę 









Na górę  
 Strefa prywatna   Prawa autorskie-Copyright: Ciśnijcie tu żeby przeczytać!